x

8775870 - Malaquite Beach (corpus Christi), Tx (mqtt2) Weather Station

2:54pm - Mon 19th Feb 2018 All times are CST. -6 hours from GMT.

  • Wind
    16mph, 18mph gusts
  • Sea Temp 64°f
  • Air Temp 81°f
  • Sea Pressure 1010.7mb
  • 8775870 - Malaquite Beach (corpus Christi), Tx
  • 8775870 - Malaquite Beach (corpus Christi), Tx

More Historic Weather Station data

Upgrade to MSW Pro to gain access to the past 30 days of data for over 8000 Wavebouys and Weather Stations around the globe.

Join

Comparision Forecast

View Surf forecast
   
Mon 02/19 2:54pm 16 18 mph 1010.7mb 64f 81f
2:48pm 16 17 mph 1010.8mb 64f 81f
2:42pm 16 17 mph 1010.9mb 64f 81f
2:36pm 15 15 mph 1011mb 64f 81f
2:30pm 14 16 mph 1011.1mb 64f 81f
2:24pm 15 17 mph 1011.1mb 64f 82f
2:18pm 16 17 mph 1011.1mb 64f 82f
2:12pm 16 17 mph 1011.1mb 64f 82f
2:06pm 16 17 mph 1011.2mb 64f 82f
2:00pm 15 17 mph 1011.3mb 64f 82f
1:54pm 16 17 mph 1011.3mb 64f 82f
1:48pm 16 17 mph 1011.4mb 64f 82f
1:42pm 16 17 mph 1011.5mb 64f 82f
1:36pm 16 17 mph 1011.5mb 64f 82f
1:30pm 16 18 mph 1011.7mb 64f 82f
1:24pm 17 18 mph 1011.7mb 64f 83f
1:18pm 16 18 mph 1011.8mb 64f 83f
1:12pm 17 20 mph 1011.8mb 64f 83f
1:06pm 17 20 mph 1011.9mb 64f 83f
1:00pm 18 20 mph 1012mb 64f 83f
12:54pm 18 21 mph 1012.1mb 63f 83f
12:48pm 17 20 mph 1012.2mb 63f 84f
12:42pm 17 20 mph 1012.4mb 63f 84f
12:36pm 18 20 mph 1012.4mb 63f 84f
12:30pm 17 20 mph 1012.6mb 63f 84f
12:24pm 18 22 mph 1012.6mb 63f 85f
12:18pm 20 21 mph 1012.7mb 63f 85f
12:12pm 20 22 mph 1012.7mb 63f 85f
12:06pm 21 23 mph 1012.7mb 63f 86f
12:00pm 20 22 mph 1012.8mb 63f 86f
11:54am 20 22 mph 1012.9mb 63f 86f
11:48am 20 22 mph 1013mb 63f 87f
11:42am 20 22 mph 1013.1mb 63f 87f
11:36am 20 22 mph 1013.1mb 63f 87f
11:30am 21 23 mph 1013.1mb 63f 87f
11:24am 21 23 mph 1013.2mb 63f 88f
11:18am 21 22 mph 1013.3mb 63f 88f
11:12am 21 22 mph 1013.3mb 63f 88f
11:06am 21 23 mph 1013.4mb 63f 88f
11:00am 21 23 mph 1013.5mb 63f 89f
10:54am 21 22 mph 1013.6mb 63f 89f
10:48am 20 22 mph 1013.7mb 63f 89f
10:42am 18 20 mph 1013.8mb 63f 89f
10:36am 20 21 mph 1013.8mb 63f 89f
10:30am 18 20 mph 1013.8mb 63f 89f
10:24am 18 21 mph 1013.8mb 63f 89f
10:18am 18 20 mph 1013.9mb 63f 90f
10:12am 18 20 mph 1013.9mb 63f 90f
10:06am 17 20 mph 1014mb 63f 90f
10:00am 17 18 mph 1014.1mb 63f 90f
9:30am 14 15 mph 1014.2mb 63f 90f
9:24am 14 15 mph 1014.2mb 63f 90f
9:18am 14 16 mph 1014.1mb 63f 90f
9:12am 14 16 mph 1014mb 63f 90f
9:06am 15 15 mph 1014mb 63f 90f
9:00am 14 15 mph 1014mb 63f 90f
8:54am 13 14 mph 1014mb 63f 91f
8:48am 13 14 mph 1014.1mb 63f 91f
8:42am 11 13 mph 1014mb 63f 91f
8:36am 11 14 mph 1014mb 63f 91f
8:30am 11 13 mph 1013.9mb 63f 91f
8:24am 11 11 mph 1013.9mb 63f 91f
8:18am 10 10 mph 1013.9mb 63f 91f
8:12am 9 11 mph 1013.9mb 63f 91f
8:06am 10 11 mph 1013.8mb 63f 91f
8:00am 10 10 mph 1013.8mb 63f 91f
7:54am 9 14 mph 1013.8mb 63f 90f
7:48am 14 15 mph 1013.8mb 63f 91f
7:42am 15 15 mph 1013.7mb 63f 91f
7:36am 14 15 mph 1013.7mb 63f 91f
7:30am 15 17 mph 1013.6mb 63f 91f
7:24am 16 20 mph 1013.5mb 63f 91f
7:18am 18 21 mph 1013.3mb 63f 91f
7:12am 18 21 mph 1013mb 63f 91f
7:06am 18 21 mph 1012.9mb 63f 91f
6:42am 18 20 mph 1012.6mb 63f 91f
6:36am 17 20 mph 1012.6mb 63f 92f
6:30am 16 18 mph 1012.6mb 63f 91f
6:24am 17 18 mph 1012.5mb 63f 91f
6:18am 17 18 mph 1012.5mb 63f 91f
6:12am 16 17 mph 1012.5mb 63f 91f
6:06am 16 18 mph 1012.4mb 63f 91f
6:00am 17 18 mph 1012.4mb 63f 91f
5:54am 16 18 mph 1012.5mb 63f 91f
5:48am 17 18 mph 1012.5mb 63f 91f
5:42am 17 18 mph 1012.5mb 63f 87f
5:36am 16 18 mph 1012.5mb 63f 81f
5:30am 16 17 mph 1012.5mb 63f 81f
5:24am 16 17 mph 1012.5mb 63f 81f
5:18am 15 16 mph 1012.6mb 63f 81f
5:12am 15 17 mph 1012.6mb 63f 81f
5:06am 16 17 mph 1012.5mb 63f 81f
5:00am 16 18 mph 1012.5mb 63f 81f
4:54am 17 20 mph 1012.5mb 63f 81f
4:48am 18 21 mph 1012.5mb 63f 81f
4:42am 20 23 mph 1012.4mb 63f 81f
4:36am 21 23 mph 1012.3mb 63f 81f
4:30am 21 22 mph 1012.3mb 63f 81f
4:24am 20 22 mph 1012.3mb 63f 81f
4:18am 20 23 mph 1012.4mb 63f 81f
4:12am 22 23 mph 1012.3mb 63f 81f
4:06am 21 24 mph 1012.3mb 63f 81f
4:00am 21 23 mph 1012.3mb 63f 81f
3:54am 20 22 mph 1012.4mb 63f 81f
3:48am 18 21 mph 1012.4mb 63f 81f
3:42am 18 21 mph 1012.5mb 63f 82f
3:36am 18 21 mph 1012.5mb 63f 82f
3:30am 17 21 mph 1012.5mb 63f 82f
3:24am 17 21 mph 1012.5mb 63f 82f
3:18am 20 22 mph 1012.4mb 63f 82f
3:12am 20 22 mph 1012.3mb 63f 82f
3:06am 18 21 mph 1012.3mb 63f 82f
3:00am 18 21 mph 1012.3mb 63f 82f
2:54am 20 22 mph 1012.4mb 63f 82f
2:48am 21 22 mph 1012.3mb 63f 82f
2:42am 20 21 mph 1012.3mb 63f 82f
2:36am 20 22 mph 1012.4mb 63f 82f
2:30am 20 21 mph 1012.5mb 63f 82f
2:24am 20 21 mph 1012.6mb 63f 82f
2:18am 20 22 mph 1012.6mb 63f 82f
2:12am 20 21 mph 1012.7mb 63f 83f
2:06am 20 22 mph 1012.8mb 63f 83f
2:00am 18 20 mph 1012.9mb 63f 83f
1:54am 18 21 mph 1012.9mb 63f 83f
1:48am 18 20 mph 1012.9mb 63f 83f
1:42am 18 21 mph 1013mb 63f 83f
1:36am 18 21 mph 1013mb 63f 83f
1:30am 18 21 mph 1013.1mb 64f 83f
1:24am 17 18 mph 1013mb 64f 83f
1:18am 17 20 mph - - -
1:12am 18 20 mph 1013.2mb 64f 83f
1:06am 18 20 mph 1013.2mb 64f 83f
1:00am 18 21 mph 1013.2mb 64f 83f
12:54am 18 21 mph 1013.1mb 64f 83f
12:48am 18 21 mph 1013.1mb 64f 83f
12:42am 18 21 mph 1013.2mb 64f 83f
12:36am 18 21 mph 1013.2mb 64f 83f
12:30am 18 22 mph 1013.2mb 64f 84f
12:24am 20 22 mph 1013.3mb 64f 84f
12:18am 20 22 mph 1013.4mb - -
12:12am 18 21 mph 1013.5mb 64f 84f
12:06am 18 21 mph 1013.6mb 64f 84f
12:00am 18 20 mph 1013.7mb 64f 84f
Sun 02/18 11:54pm 17 18 mph 1013.8mb 64f 84f
11:48pm 16 18 mph 1013.9mb 64f 84f
11:42pm 17 18 mph 1013.9mb 64f 84f
11:36pm 17 20 mph 1013.9mb 64f 84f
11:30pm 17 20 mph 1013.9mb 64f 84f
11:24pm 17 18 mph 1014mb 64f 84f
11:18pm 18 20 mph 1014mb 64f -
11:12pm 18 21 mph 1014mb 64f 84f
11:06pm 18 21 mph 1014.1mb 64f 84f
11:00pm 18 21 mph 1014.1mb 64f 84f
10:54pm 20 22 mph 1014.2mb 64f 84f
10:48pm 20 21 mph 1014.2mb 64f 84f
10:42pm 20 21 mph 1014.2mb 64f 84f
10:36pm 20 21 mph 1014.3mb 64f 85f
10:30pm 20 21 mph 1014.3mb 64f 85f
10:24pm 20 21 mph 1014.3mb 64f 85f
10:18pm 21 22 mph 1014.3mb 64f 85f
10:12pm 20 21 mph 1014.4mb 64f 85f
10:06pm 18 20 mph 1014.5mb 64f 85f
10:00pm 17 20 mph 1014.6mb 64f 84f
9:54pm 15 16 mph 1014.7mb 64f 84f
9:48pm 14 15 mph 1014.7mb 64f 84f
9:42pm 15 16 mph 1014.7mb 64f 84f
9:36pm 16 17 mph 1014.6mb 64f 85f
9:30pm 16 18 mph 1014.7mb 64f 85f
9:24pm 17 20 mph 1014.6mb 64f 86f
9:18pm 17 20 mph 1014.6mb 64f 86f
9:12pm 17 18 mph 1014.6mb 63f 86f
9:06pm 17 18 mph 1014.6mb 63f 86f
9:00pm 17 20 mph 1014.7mb 63f 86f
8:54pm 17 18 mph 1014.6mb 63f 86f
8:48pm 18 20 mph 1014.6mb 63f 86f
8:42pm 18 21 mph 1014.6mb 63f 86f
8:36pm 18 21 mph 1014.6mb 63f 87f
8:30pm 20 22 mph 1014.6mb 63f 87f
8:24pm 21 22 mph 1014.5mb 63f 87f
8:18pm 21 22 mph 1014.5mb 63f 87f
8:12pm 21 22 mph 1014.5mb 63f 87f
8:06pm 20 21 mph 1014.5mb 63f 87f
8:00pm 20 22 mph 1014.4mb 63f 80f
7:54pm 20 22 mph 1014.4mb 63f 80f
7:48pm 21 22 mph 1014.2mb 63f 80f
7:42pm 21 23 mph 1014.1mb 63f 80f
7:36pm 20 23 mph 1014.1mb 63f 80f
7:30pm 21 22 mph 1014mb 63f 80f
7:24pm 21 23 mph 1014mb 63f 80f
7:18pm 21 22 mph 1014mb 63f 81f
7:12pm 20 22 mph 1013.9mb 63f 80f
7:06pm 20 21 mph 1014mb 63f 80f
7:00pm 17 18 mph 1014mb 63f 80f
6:54pm 15 17 mph 1014.1mb 63f 80f
6:48pm 15 17 mph 1014.1mb 63f 80f
6:42pm 16 18 mph 1014.1mb 63f 80f
6:36pm 17 20 mph 1014.1mb 63f 80f
6:30pm 18 21 mph 1014mb 63f 81f
6:24pm 18 20 mph 1014mb 63f 81f
6:18pm 17 18 mph 1014mb 63f 81f
6:12pm 17 20 mph 1014mb 63f 81f
6:06pm 17 18 mph 1014mb 62f 81f
6:00pm 16 18 mph 1014mb 62f 81f
5:54pm 16 17 mph 1014.1mb 62f 81f
5:48pm 14 15 mph 1014.2mb 62f 81f
5:42pm 14 15 mph 1014.2mb 62f 81f
5:36pm 14 15 mph 1014.2mb 62f 81f
5:30pm 14 15 mph 1014.2mb 62f 82f
5:24pm 15 16 mph 1014.1mb 62f 82f
5:18pm 16 16 mph 1014.1mb 62f 80f
5:12pm 15 16 mph 1014mb 62f 80f
5:06pm 15 16 mph 1014mb 61f 80f
5:00pm 15 16 mph 1014mb 61f 80f
4:54pm 15 16 mph 1014mb 61f 81f
4:48pm 16 17 mph 1014mb 61f 81f
4:42pm 16 17 mph 1014.1mb 61f 81f
4:36pm 15 16 mph 1014.1mb 61f 81f
4:30pm 16 17 mph 1014.2mb 60f 82f
4:24pm 16 18 mph 1014.2mb 60f 82f
4:18pm 16 17 mph 1014.2mb 60f 82f
4:12pm 15 17 mph 1014.3mb 60f 83f
4:06pm 16 17 mph 1014.3mb 60f 83f
4:00pm 16 17 mph 1014.4mb 60f 83f
3:54pm 14 14 mph 1014.5mb 60f 83f
3:48pm 14 15 mph 1014.6mb 60f 84f
3:42pm 13 14 mph 1014.6mb 59f 84f
3:36pm 11 13 mph 1014.6mb 59f 85f
3:30pm 11 14 mph 1014.7mb 59f 85f
3:24pm 13 15 mph 1014.8mb 59f 85f
3:18pm 13 14 mph 1014.8mb 59f 86f
3:12pm 11 13 mph 1014.9mb 59f 86f
3:06pm 11 14 mph 1015.1mb 59f 86f
3:00pm 13 14 mph 1015.1mb 59f 87f
2:54pm 13 14 mph 1015.2mb 59f 88f
2:48pm 13 13 mph 1015.4mb 59f 88f
2:42pm 11 13 mph 1015.4mb 59f 88f
2:36pm 11 13 mph 1015.5mb 59f 89f
2:30pm 11 13 mph 1015.6mb 59f 89f
2:24pm 11 13 mph 1015.7mb 59f 89f
2:18pm 11 13 mph 1015.8mb 59f 89f
2:12pm 11 13 mph 1015.8mb 60f 90f
2:06pm 11 13 mph 1015.9mb 60f 90f
2:00pm 10 10 mph 1016mb 60f 90f
1:54pm 8 8 mph 1016.1mb 60f 90f
1:48pm 8 8 mph 1016.2mb 60f 90f
1:42pm 7 9 mph 1016.3mb 60f -
1:36pm 8 8 mph 1016.4mb 60f -
1:30pm 6 7 mph 1016.5mb 60f -
1:24pm 6 7 mph 1016.6mb 60f -
1:18pm 6 7 mph 1016.7mb 60f -
1:12pm 6 6 mph 1016.8mb 60f -
1:06pm 5 6 mph 1016.9mb 60f -
1:00pm 5 6 mph 1017mb 60f -
12:54pm 6 6 mph 1017mb 60f -
12:48pm 6 6 mph 1017.2mb 60f -
12:42pm 6 6 mph 1017.3mb 61f -
12:36pm 6 7 mph 1017.4mb 61f -
12:30pm 7 8 mph 1017.5mb 61f 79f
12:24pm 7 8 mph 1017.6mb 61f 79f
12:18pm 6 7 mph 1017.7mb 61f 79f
12:12pm 3 5 mph 1017.9mb 61f 79f
12:06pm 2 3 mph 1018mb 61f 79f
12:00pm 1 2 mph 1018.1mb 61f 79f
11:54am  -  1 mph 1018.3mb 61f 79f
11:48am 1 1 mph 1018.4mb 61f 79f
11:42am 1 2 mph 1018.5mb 61f 79f
11:36am 2 3 mph 1018.5mb 61f 79f
11:30am 3 5 mph 1018.5mb 61f 80f
11:24am 3 5 mph 1018.6mb 61f 79f
11:18am 3 5 mph 1018.6mb 61f 80f
11:12am 2 5 mph 1018.7mb 61f 79f
11:06am 3 6 mph 1018.7mb 61f 80f
11:00am 3 6 mph 1018.7mb 61f 80f
10:54am 3 6 mph 1018.6mb 61f 79f
10:48am 3 5 mph 1018.6mb 61f 79f
10:42am 5 5 mph 1018.6mb 61f 79f
10:36am 3 5 mph 1018.6mb 61f 79f
10:30am 3 5 mph 1018.7mb 61f 78f
10:24am 3 3 mph 1018.8mb 60f 78f
10:18am 3 5 mph 1018.8mb 60f 78f
10:12am 3 3 mph 1018.8mb 60f 78f
10:06am 3 5 mph 1018.8mb 60f 78f
10:00am 5 6 mph 1018.7mb 60f 77f
9:54am 6 6 mph 1018.6mb 60f 77f
9:48am 6 7 mph 1018.6mb 60f 76f
9:42am 7 8 mph 1018.5mb 60f 76f
9:36am 8 9 mph 1018.5mb 60f 77f
9:30am 8 9 mph 1018.5mb 60f 77f
9:24am 8 9 mph 1018.5mb 60f 77f
9:12am 9 10 mph 1018.3mb 60f 77f
9:06am 9 10 mph 1018.3mb 60f -
9:00am 10 11 mph 1018.2mb 60f -
8:54am 11 14 mph 1018.2mb 60f -
8:48am 13 14 mph 1018mb 60f -
8:42am 13 15 mph 1018mb 60f -
8:36am 14 14 mph 1018mb 60f -
8:30am 13 14 mph 1017.9mb 60f -
8:24am 13 14 mph 1017.9mb 60f -
8:18am 11 13 mph 1017.8mb 60f -
8:12am 11 11 mph 1017.8mb 60f -
8:06am 11 11 mph 1017.8mb 60f -
8:00am 10 11 mph 1017.8mb 61f -
7:54am 10 11 mph 1017.8mb 61f -
7:48am 9 9 mph 1017.8mb 61f -
7:42am 9 9 mph 1017.8mb 61f -
7:36am 9 10 mph 1017.8mb 61f -
7:30am 10 10 mph 1017.7mb 61f -
7:24am 9 10 mph 1017.7mb 61f -
7:18am 10 10 mph 1017.6mb 61f -
7:12am 10 11 mph 1017.6mb 61f 65f
7:06am 10 10 mph 1017.5mb 61f 65f
7:00am 10 11 mph 1017.5mb 61f 65f
6:54am 10 10 mph 1017.5mb 61f 66f
6:48am 10 13 mph 1017.5mb 61f 66f
6:42am 11 11 mph 1017.5mb 61f 66f
6:36am 11 13 mph 1017.5mb 61f 66f
6:30am 13 13 mph 1017.5mb 61f 65f
6:24am 11 13 mph 1017.5mb 61f 65f
6:18am 11 13 mph - - -
6:12am 13 14 mph 1017.3mb 61f 66f
6:06am 11 13 mph 1017.3mb 61f 65f
6:00am 11 13 mph 1017.3mb 61f 65f
5:54am 11 14 mph 1017.3mb 61f 65f
5:48am 14 14 mph 1017.2mb 61f 66f
5:42am 13 14 mph 1017.2mb 61f 66f
5:36am 14 14 mph 1017.1mb 61f 66f
5:30am 14 14 mph 1017.1mb 61f 66f
5:24am 11 13 mph 1017.2mb 61f 65f
5:18am 11 13 mph 1017.2mb 61f 65f
5:12am 11 11 mph 1017.2mb 61f 65f
5:06am 13 14 mph 1017.2mb 61f 66f
5:00am 11 13 mph 1017.2mb 61f 65f
4:54am 11 13 mph 1017.2mb 61f 65f
4:48am 11 13 mph 1017.2mb 61f 65f
4:42am 11 13 mph 1017.1mb 61f 65f
4:36am 10 13 mph 1017.1mb 61f 65f
4:30am 10 11 mph 1017.1mb 61f 65f
4:24am 9 9 mph 1017.1mb 61f 65f
4:18am 8 9 mph 1017.1mb 61f -
4:12am 8 9 mph 1017.1mb 61f 66f
4:06am 8 9 mph 1017.2mb 61f 67f
4:00am 9 10 mph 1017.2mb 61f 67f
3:54am 10 10 mph 1017.2mb 61f 66f
3:48am 7 8 mph 1017.3mb 61f 64f
3:42am 8 8 mph 1017.3mb 61f 65f
3:36am 8 9 mph 1017.3mb 61f 66f
3:30am 8 10 mph 1017.4mb 61f 65f
3:24am 9 11 mph 1017.4mb 61f 65f
3:18am 8 8 mph 1017.5mb 61f 64f
3:12am 8 8 mph 1017.5mb 61f 65f
3:00am 6 8 mph 1017.5mb 61f 64f
2:54am 6 6 mph 1017.6mb 61f 64f
2:48am 6 6 mph 1017.6mb - -
2:42am 6 6 mph 1017.5mb 61f 63f
2:36am 6 6 mph 1017.5mb 61f 63f
2:30am 6 6 mph 1017.5mb 61f 63f
2:24am 6 7 mph 1017.6mb 61f 63f
2:12am 7 8 mph 1017.7mb 61f 63f
2:06am 7 8 mph 1017.7mb 61f 63f
2:00am 8 8 mph 1017.7mb 61f 64f
1:54am 8 9 mph 1017.7mb 61f 64f
1:48am 8 9 mph 1017.7mb 61f 64f
1:42am 9 10 mph 1017.7mb 61f 64f
1:36am 10 10 mph 1017.7mb 61f 66f
1:30am 10 13 mph 1017.8mb 61f 67f
1:24am 11 13 mph 1017.8mb 61f 66f
1:18am 11 14 mph - - -
1:12am 13 13 mph 1017.7mb 61f 64f
1:06am 10 11 mph 1017.7mb 61f 64f
1:00am 10 11 mph 1017.7mb 61f 65f
12:54am 10 11 mph 1017.7mb 61f 65f
12:48am 10 10 mph 1017.7mb 61f 64f
12:42am 10 13 mph 1017.7mb 61f 64f
12:36am 11 14 mph 1017.7mb 61f 65f
12:30am 13 14 mph 1017.7mb 61f 65f
12:24am 13 14 mph 1017.8mb 61f 65f
12:18am 13 14 mph 1017.8mb - -
12:12am 13 14 mph 1017.8mb 61f 64f
12:06am 11 13 mph 1017.8mb 61f 64f
12:00am 11 13 mph 1017.9mb 61f 64f
Sat 02/17 11:54pm 13 15 mph 1017.9mb 61f 64f
11:48pm 15 15 mph 1017.9mb 61f -
11:42pm 14 15 mph 1018mb 61f -
11:36pm 14 15 mph 1018mb 61f -
11:30pm 13 14 mph 1018.1mb 61f 64f
11:24pm 13 15 mph 1018.1mb 61f 65f
11:18pm 14 15 mph 1018.2mb - -
11:12pm 15 17 mph 1018.2mb 61f 65f
11:06pm 17 17 mph 1018.2mb 61f 65f
11:00pm 17 17 mph 1018.1mb 61f 65f
10:54pm 16 16 mph 1018.2mb 61f 65f
10:48pm 15 16 mph 1018.2mb 61f 65f
10:42pm 15 16 mph 1018.2mb 61f 65f
10:36pm 15 16 mph 1018.3mb 61f 65f
10:30pm 15 16 mph 1018.4mb 61f 65f
10:24pm 16 16 mph 1018.4mb 61f 65f
10:18pm 15 16 mph 1018.4mb 61f 65f
10:12pm 15 16 mph 1018.4mb 61f 65f
10:06pm 15 15 mph 1018.3mb 61f 65f
10:00pm 14 16 mph 1018.3mb 61f 65f
9:54pm 15 16 mph 1018.2mb 61f 65f
9:48pm 15 16 mph 1018.2mb 61f 65f
9:42pm 13 15 mph 1018.3mb 61f 65f
9:36pm 15 17 mph 1018.2mb 61f 65f
9:30pm 16 17 mph 1018mb 61f 65f
9:24pm 15 17 mph 1018mb 61f 65f
9:18pm 17 18 mph 1017.9mb 61f 65f
9:12pm 17 18 mph 1017.9mb 61f 65f
9:06pm 17 18 mph 1017.9mb 61f 65f
9:00pm 17 20 mph 1017.9mb 61f 65f
8:54pm 18 20 mph 1017.9mb 61f 65f
8:48pm 17 18 mph 1017.9mb 61f 65f
8:42pm 18 18 mph 1017.9mb 61f 66f
8:36pm 17 20 mph 1017.9mb 61f 66f
8:30pm 18 20 mph 1017.8mb 61f 66f
8:24pm 18 20 mph 1017.7mb 61f 66f
8:18pm 17 20 mph 1017.7mb 61f 65f
8:12pm 18 20 mph 1017.6mb 61f 65f
8:06pm 17 18 mph 1017.6mb 61f 65f
8:00pm 15 16 mph 1017.6mb 61f 65f
7:54pm 13 14 mph 1017.6mb 61f 64f
7:48pm 14 15 mph 1017.5mb 61f 64f
7:42pm 14 15 mph 1017.5mb 61f 64f
7:36pm 14 15 mph 1017.5mb 61f 64f
7:30pm 14 15 mph 1017.3mb 61f 65f
7:24pm 14 15 mph 1017.3mb 61f 64f
7:18pm 14 15 mph 1017.2mb 61f 64f
7:12pm 14 16 mph 1017.1mb 61f 64f
7:06pm 15 16 mph 1017mb 61f 64f
7:00pm 16 17 mph 1016.9mb 61f 65f
6:54pm 16 17 mph 1016.8mb 61f 65f
6:48pm 15 16 mph - - -
6:42pm 15 16 mph 1016.8mb 61f 65f
6:36pm 14 15 mph 1016.8mb 61f 65f
6:30pm 14 15 mph 1016.8mb 61f 65f
6:24pm 15 15 mph 1016.7mb 61f 65f
6:18pm 15 16 mph 1016.6mb 61f 65f
6:12pm 14 15 mph 1016.6mb 60f 65f
6:06pm 14 15 mph 1016.5mb 60f 65f
6:00pm 14 15 mph 1016.5mb 60f 65f
5:54pm 14 15 mph 1016.4mb 60f 65f
5:48pm 15 16 mph 1016.3mb 60f 65f
5:42pm 15 16 mph 1016.2mb 60f 65f
5:36pm 15 17 mph 1016.1mb 60f 65f
5:30pm 16 17 mph 1016mb 60f 65f
5:24pm 15 16 mph 1016mb 60f 65f
5:18pm 15 16 mph 1016mb 60f 65f
5:12pm 15 16 mph 1016.1mb 60f 64f
5:06pm 16 16 mph 1016mb 60f 64f
5:00pm 15 16 mph 1016.1mb 60f 65f
4:54pm 15 15 mph 1016.1mb 60f 64f
4:48pm 15 15 mph 1016mb 60f 65f
4:42pm 15 16 mph 1016.1mb 60f 65f
4:36pm 15 16 mph 1016.1mb 60f 65f
4:30pm 15 16 mph 1016mb 60f 65f
4:24pm 15 16 mph 1016mb 60f 65f
4:18pm 15 16 mph 1016mb 60f 64f
4:12pm 14 16 mph 1016.1mb 60f 64f
4:06pm 15 15 mph 1016.1mb 60f 64f
4:00pm 15 16 mph 1016.2mb 60f 64f
3:54pm 15 17 mph 1016.2mb 60f 64f
3:48pm 15 17 mph - - -
3:42pm 16 17 mph 1016.3mb 60f 65f
3:36pm 15 16 mph 1016.3mb 60f 64f
3:30pm 14 15 mph 1016.4mb 60f 64f
3:24pm 15 16 mph 1016.4mb 60f 64f
3:18pm 15 17 mph 1016.4mb 60f 64f
3:12pm 16 17 mph 1016.4mb 60f 64f
3:06pm 16 17 mph 1016.4mb 60f 64f
3:00pm 15 16 mph 1016.5mb 59f 64f
2:54pm 15 17 mph 1016.5mb 59f 64f
2:48pm 16 17 mph 1016.5mb 59f 64f
2:42pm 17 20 mph 1016.6mb 59f 64f
2:36pm 17 18 mph 1016.5mb 59f 64f
2:30pm 15 17 mph 1016.6mb 59f 64f
2:24pm 14 15 mph 1016.7mb 59f 63f
2:18pm 14 15 mph 1016.8mb 59f 63f
2:12pm 15 16 mph 1016.8mb 59f 64f
2:06pm 15 16 mph 1016.9mb 59f 64f
2:00pm 15 16 mph 1017mb 59f 64f
1:54pm 16 17 mph 1017mb 59f 64f
1:48pm 15 16 mph 1017.1mb 59f 63f
1:42pm 16 16 mph 1017.1mb 59f 63f
1:36pm 7 7 mph 1017.2mb 59f 63f
1:30pm 3 5 mph 1017.4mb 59f 63f
1:24pm 3 3 mph 1017.5mb 59f 62f
1:18pm 3 5 mph 1017.6mb 59f 62f
1:12pm 3 3 mph 1017.7mb 59f 63f
1:06pm 1 2 mph 1017.8mb 59f 62f
1:00pm 1 2 mph 1017.9mb 58f 63f
12:54pm  -  2 mph 1018mb 58f 63f
12:48pm  -  2 mph 1018mb 58f 63f
12:42pm 1 3 mph 1018mb 58f 63f
12:36pm 2 3 mph 1018.1mb 58f 63f
12:30pm 3 5 mph 1018.2mb 58f 63f
12:24pm 3 5 mph 1018.2mb 58f 62f
12:18pm 5 5 mph 1018.3mb 58f 62f
12:12pm 5 6 mph 1018.4mb 58f 63f
12:06pm 3 6 mph 1018.4mb 58f 62f
12:00pm 5 6 mph 1018.4mb 58f 63f
11:54am 6 6 mph 1018.5mb 58f 62f
11:48am 6 6 mph 1018.4mb 58f 62f
11:42am 3 5 mph 1018.5mb 58f 62f
11:36am 5 6 mph 1018.6mb 58f 62f
11:30am 6 7 mph 1018.5mb 58f 62f
11:24am 5 6 mph 1018.6mb 58f 62f
11:18am 5 5 mph 1018.7mb 58f 62f
11:12am 5 5 mph 1018.7mb 58f 62f
11:06am 3 3 mph 1018.8mb 58f 62f
11:00am 2 5 mph 1018.9mb 58f 62f
10:54am 6 6 mph 1018.9mb 58f 62f
10:48am 5 6 mph 1018.9mb 58f 62f
10:42am 6 6 mph 1019mb 58f 63f
10:36am 5 6 mph 1019.1mb 58f 62f
10:30am 7 10 mph 1019mb 58f 62f
10:24am 11 13 mph 1018.8mb 58f 63f
10:18am 10 10 mph 1018.8mb 58f 63f
10:12am 9 10 mph 1019mb 58f 63f
10:06am 9 10 mph 1018.9mb 58f 64f
10:00am 9 10 mph 1018.8mb 58f 64f
9:54am 9 9 mph 1018.8mb 58f 64f
9:48am 8 8 mph 1018.9mb 58f 63f
9:42am 6 7 mph 1018.9mb 58f 64f
9:36am 7 8 mph 1018.7mb 58f 64f
9:30am 6 8 mph 1018.7mb 58f 64f
9:24am 3 6 mph 1018.6mb 58f 62f
9:18am 6 8 mph 1018.2mb 58f 61f
9:12am 8 11 mph 1017.9mb 58f 61f
9:06am 10 14 mph 1017.6mb 58f 62f
9:00am 13 15 mph 1017.4mb 58f 62f
8:54am 14 15 mph 1017.3mb 58f 62f
8:48am 15 17 mph 1017.1mb 58f 62f
8:42am 16 16 mph 1016.9mb 58f 62f
8:36am 15 16 mph 1016.8mb 58f 62f
8:30am 14 16 mph 1016.8mb 58f 62f
8:24am 14 15 mph 1016.8mb 58f 62f
8:18am 14 15 mph 1016.6mb 58f 62f
8:12am 14 15 mph 1016.7mb 58f 62f
8:06am 14 15 mph 1016.6mb 58f 62f
8:00am 14 15 mph 1016.5mb - -
7:54am 13 14 mph 1016.5mb 58f 62f
7:48am 11 13 mph 1016.5mb 58f 62f
7:42am 10 13 mph 1016.5mb 58f 61f
7:36am 10 11 mph 1016.4mb 58f 61f
7:30am 10 11 mph 1016.5mb 58f 62f
7:24am 8 9 mph 1016.6mb 58f 61f
7:18am 9 10 mph 1016.6mb 58f 61f
7:12am 9 10 mph 1016.5mb 58f 61f
7:06am 9 10 mph 1016.4mb 58f 61f
7:00am 9 10 mph 1016.3mb 58f 61f
6:54am 9 10 mph 1016.4mb 58f 61f
6:48am 8 8 mph 1016.4mb 58f 61f
6:42am 8 10 mph 1016.4mb 58f 61f
6:36am 9 10 mph 1016.3mb 58f 61f
6:30am 8 9 mph 1016.4mb 58f 61f
6:24am 8 9 mph 1016.4mb 58f 61f
6:18am 9 11 mph 1016.2mb 58f 61f
6:12am 10 10 mph 1016.1mb 58f 61f
6:06am 10 11 mph 1016mb 58f 61f
6:00am 10 10 mph 1015.8mb 58f 62f
5:54am 9 10 mph 1015.9mb 58f 62f
5:48am 9 10 mph 1015.9mb 58f 61f
5:42am 10 13 mph 1015.9mb 58f 62f
5:36am 13 13 mph 1015.9mb 58f 62f
5:30am 11 13 mph 1015.9mb 58f 62f
5:24am 11 13 mph 1015.8mb 58f 62f
5:18am 13 14 mph 1015.6mb 58f 63f
5:12am 13 14 mph 1015.6mb 58f 63f
5:06am 14 14 mph 1015.4mb 58f 63f
5:00am 11 13 mph 1015.5mb 58f 63f
4:54am 11 13 mph 1015.5mb 58f 63f
4:48am 11 13 mph 1015.5mb 58f -
4:42am 13 13 mph 1015.5mb 58f 63f
4:36am 13 14 mph 1015.6mb 58f 63f
4:30am 11 13 mph 1015.6mb 58f 63f
4:24am 13 13 mph 1015.6mb 58f 63f
4:18am 11 13 mph 1015.6mb 58f 62f
4:12am 11 13 mph 1015.7mb 58f 62f
4:06am 11 13 mph 1015.7mb 58f 63f
4:00am 11 13 mph 1015.7mb 58f 63f
3:54am 11 13 mph 1015.7mb 58f 63f
3:48am 11 13 mph 1015.7mb 58f 63f
3:42am 10 11 mph 1015.8mb 58f 63f
3:36am 10 10 mph 1015.9mb 58f 63f
3:30am 8 9 mph 1016.1mb 58f 63f
3:24am 6 7 mph 1016.2mb 58f 63f
3:18am 6 8 mph 1016.3mb 58f -
3:12am 8 9 mph 1016.4mb 58f 64f
3:06am 9 9 mph 1016.4mb 58f 65f
3:00am 8 8 mph 1016.5mb 58f 64f
2:54am 8 9 mph 1016.6mb 58f 64f
2:48am 9 10 mph 1016.6mb 58f 65f
2:42am 8 10 mph 1016.7mb 58f 64f
2:36am 8 9 mph 1016.8mb 58f 64f
2:30am 7 8 mph 1016.9mb 59f 64f
2:24am 8 9 mph 1016.9mb 59f 64f
2:18am 8 10 mph 1017mb 59f 64f
2:12am 10 13 mph 1017mb 59f 65f
2:06am 11 13 mph 1016.9mb 59f 65f
2:00am 11 13 mph 1017mb 59f 66f
1:54am 11 11 mph 1017mb 59f 66f
1:48am 13 13 mph 1017.1mb 59f 67f
1:42am 11 13 mph 1017.2mb 59f 65f
1:36am 11 11 mph 1017.3mb 58f 65f
1:30am 9 10 mph 1017.5mb 58f 66f
1:24am 8 9 mph 1017.6mb 58f 66f
1:18am 7 7 mph 1017.7mb 58f 65f
1:12am 6 6 mph 1017.7mb 58f 65f
1:06am 5 5 mph 1017.8mb 58f 66f
1:00am 5 5 mph 1017.8mb 58f 66f
12:54am 5 5 mph 1017.9mb 58f 66f
12:48am 5 5 mph 1017.9mb 58f -
12:42am 5 5 mph 1017.9mb 58f 66f
12:36am 3 6 mph 1017.9mb 58f 66f
12:30am 3 5 mph 1017.9mb 58f 66f
12:24am 2 3 mph 1017.9mb 58f 66f
12:18am 2 3 mph 1017.8mb - -
12:12am  -  1 mph 1017.8mb 58f 65f
12:06am  -  1 mph 1017.8mb 58f 65f
12:00am  -  1 mph 1017.8mb 58f 65f
Fri 02/16 11:54pm  -  2 mph 1017.8mb 58f 65f
11:48pm 1 2 mph 1017.8mb 58f 65f
11:42pm 1 5 mph 1017.9mb 58f 65f
11:36pm 3 5 mph 1017.8mb 58f 65f
11:30pm 2 3 mph 1017.8mb 58f 64f
11:24pm 2 5 mph 1017.8mb 58f 64f
11:18pm 3 6 mph 1017.7mb 58f 64f
11:12pm 6 8 mph 1017.6mb 58f 64f
11:06pm 8 9 mph 1017.5mb 58f 64f
11:00pm 8 9 mph 1017.5mb 58f 63f
10:54pm 9 10 mph 1017.4mb 58f 63f
10:48pm 10 11 mph 1017.3mb 58f 63f
10:42pm 11 13 mph 1017.2mb 58f 63f
10:36pm 13 14 mph 1017.2mb 58f 63f
10:30pm 13 14 mph 1017.2mb 58f 63f
10:24pm 14 15 mph 1017.2mb 58f 63f
10:18pm 15 15 mph 1017.2mb 58f 63f
10:12pm 15 15 mph 1017.1mb 58f 63f
10:06pm 15 16 mph 1017.2mb 58f 63f
10:00pm 15 16 mph 1017.2mb 58f 64f
9:54pm 14 15 mph 1017.3mb 58f 63f
9:48pm 15 16 mph 1017.3mb 58f 64f
9:42pm 15 16 mph 1017.3mb 58f 63f
9:36pm 14 16 mph 1017.3mb 58f 63f
9:30pm 15 16 mph 1017.3mb 58f 63f
9:24pm 15 16 mph 1017.4mb 58f 63f
9:18pm 15 15 mph 1017.4mb 58f 63f
9:12pm 15 15 mph 1017.4mb 58f 63f
9:06pm 15 16 mph 1017.4mb 58f 63f
9:00pm 16 16 mph 1017.3mb 58f 63f
8:54pm 15 16 mph 1017.3mb 58f 63f
8:48pm 15 15 mph 1017.3mb 58f 63f
8:42pm 15 15 mph 1017.3mb 58f 63f
8:36pm 13 14 mph 1017.4mb 58f 63f
8:30pm 14 15 mph 1017.3mb 58f 64f
8:24pm 14 16 mph 1017.2mb 58f 64f
8:18pm 16 17 mph 1017.1mb 58f 64f
8:12pm 15 16 mph 1017.1mb 58f 63f
8:06pm 13 14 mph 1017.1mb 58f 63f
8:00pm 13 14 mph 1017.1mb 58f 63f
7:54pm 13 14 mph 1017mb 58f 64f
7:48pm 14 15 mph 1017mb 58f 64f
7:42pm 15 15 mph 1017mb 58f 63f
7:36pm 13 14 mph 1016.9mb 58f 62f
7:30pm 13 14 mph 1017mb 58f 62f
7:24pm 14 14 mph 1016.9mb 58f 62f
7:18pm 14 15 mph 1016.8mb 58f 63f
7:12pm 15 16 mph 1016.6mb 58f 64f
7:06pm 15 15 mph 1016.6mb 58f 64f
7:00pm 14 15 mph 1016.5mb 58f 63f
6:54pm 15 16 mph 1016.4mb 58f 64f
6:48pm 14 15 mph 1016.4mb 58f 64f
6:42pm 14 16 mph 1016.5mb 58f 64f
6:36pm 15 16 mph 1016.5mb 58f 64f
6:30pm 16 17 mph 1016.5mb 58f 64f
6:24pm 16 18 mph 1016.4mb 57f 64f
6:18pm 16 18 mph 1016.4mb 57f 64f
6:12pm 14 15 mph 1016.5mb 57f 63f
6:06pm 7 8 mph 1016.6mb 57f 61f
6:00pm 6 7 mph 1016.6mb 57f 61f
5:54pm 6 6 mph 1016.6mb 57f 60f
5:48pm 5 8 mph 1016.7mb 57f 60f
5:42pm 9 13 mph 1016.7mb 57f 62f
5:36pm 13 14 mph 1016.7mb 57f 63f
5:30pm 14 15 mph 1016.6mb 57f 63f
5:24pm 14 16 mph 1016.6mb 57f 63f
5:18pm 15 16 mph 1016.6mb 57f 64f
5:12pm 16 16 mph 1016.6mb 57f 64f
5:06pm 16 17 mph 1016.5mb 57f 64f
5:00pm 15 16 mph 1016.5mb 57f 63f
4:54pm 14 16 mph 1016.5mb 57f 63f
4:48pm 15 16 mph 1016.5mb 57f 63f
4:42pm 15 16 mph 1016.6mb 56f 63f
4:36pm 15 16 mph 1016.6mb 56f 63f
4:30pm 14 16 mph 1016.6mb 56f 63f
4:24pm 15 16 mph 1016.6mb 56f 64f
4:18pm 15 16 mph 1016.6mb 56f 63f
4:12pm 15 16 mph 1016.6mb 56f 63f
4:06pm 15 16 mph 1016.6mb 56f 63f
4:00pm 15 16 mph 1016.6mb 56f 63f
3:54pm 15 16 mph 1016.6mb 56f 62f
3:48pm 15 16 mph 1016.6mb 56f 62f
3:42pm 15 16 mph 1016.6mb 56f 63f
3:36pm 15 16 mph 1016.6mb 56f 62f
3:30pm 15 15 mph 1016.7mb 56f 62f
3:24pm 15 16 mph 1016.8mb 56f 63f
3:18pm 15 16 mph 1016.9mb 56f 63f
3:12pm 15 16 mph 1017mb 56f 63f
3:06pm 15 16 mph 1017mb 56f 63f
3:00pm 15 16 mph 1017.1mb 56f 63f
2:54pm 16 17 mph 1017.1mb 56f 63f
2:48pm 16 17 mph 1017.2mb 56f 63f
2:42pm 15 16 mph 1017.3mb 56f 63f
2:36pm 15 17 mph 1017.4mb 56f 62f
2:30pm 15 16 mph 1017.4mb 56f 62f
2:24pm 14 15 mph 1017.5mb 56f 62f
2:18pm 14 15 mph 1017.5mb 56f 61f
2:12pm 13 14 mph 1017.6mb 56f 61f
2:06pm 13 14 mph 1017.6mb 56f 61f
2:00pm 11 11 mph 1017.6mb 56f 61f
1:54pm 11 13 mph 1017.6mb 56f 61f
1:48pm 13 15 mph 1017.7mb 56f 61f
1:42pm 13 14 mph 1017.7mb 56f 62f
1:36pm 14 14 mph 1017.8mb 56f 62f
1:30pm 11 11 mph 1018mb 56f 61f
1:24pm 9 9 mph 1018.1mb 56f 62f
1:18pm  -  1 mph 1018.3mb 56f 63f
1:12pm  -  2 mph 1018.4mb 56f 63f
1:06pm 2 3 mph 1018.4mb 56f 64f
1:00pm 3 5 mph 1018.4mb 56f 64f
12:54pm 5 6 mph 1018.5mb 56f 64f
12:48pm 6 6 mph 1018.6mb 56f 65f
12:42pm 6 6 mph 1018.6mb 56f 65f
12:36pm 6 6 mph 1018.8mb 56f 65f
12:30pm 6 6 mph 1018.9mb 56f 65f
12:24pm 5 5 mph 1019.1mb 56f 65f
12:18pm 5 5 mph 1019.2mb 56f 64f
12:12pm 5 6 mph 1019.3mb 56f 64f
12:06pm 6 6 mph 1019.3mb 56f 64f
12:00pm 6 6 mph 1019.4mb 56f 64f
11:54am 6 6 mph 1019.4mb 56f 64f
11:48am 6 6 mph 1019.5mb 56f 64f
11:42am 6 7 mph 1019.6mb 56f 64f
11:36am 6 7 mph 1019.7mb 56f 64f
11:30am 6 7 mph 1019.7mb 56f 64f
11:24am 7 7 mph 1019.7mb 56f 64f
11:18am 7 8 mph 1019.8mb 56f 64f
11:12am 7 8 mph 1019.8mb 56f 64f
11:06am 7 8 mph 1019.8mb 56f 64f
11:00am 6 7 mph 1019.7mb 56f 63f
10:54am 5 6 mph 1019.7mb 56f 63f
10:48am 5 7 mph 1019.7mb 56f 62f
10:42am 6 8 mph 1019.6mb 56f 62f
10:36am 7 9 mph 1019.4mb 56f 61f
10:30am 8 9 mph 1019.3mb 56f 61f
10:24am 9 10 mph 1019.2mb 56f 61f
10:18am 9 10 mph 1019mb 56f 61f
10:12am 10 10 mph 1019mb 56f 61f
10:06am 10 11 mph 1018.9mb 56f 62f
10:00am 10 13 mph 1018.9mb 56f 62f
9:54am 11 11 mph 1018.9mb 56f 62f
9:48am 10 11 mph 1019mb 56f 61f
9:42am 10 11 mph 1019mb 56f 61f
9:36am 11 13 mph 1018.9mb 56f 61f
9:30am 13 15 mph 1018.8mb 56f 61f
9:24am 14 14 mph 1018.7mb 56f 61f
9:18am 14 16 mph 1018.6mb 56f 61f
9:12am 15 16 mph 1018.5mb 56f 62f
9:06am 15 16 mph 1018.4mb 56f 62f
9:00am 16 17 mph 1018.3mb 56f 62f
8:54am 16 17 mph 1018.2mb 56f 62f
8:48am 16 17 mph 1018.1mb 56f 62f
8:42am 16 18 mph 1018mb 56f 62f
8:36am 16 17 mph 1018mb 56f 62f
8:30am 16 17 mph 1017.9mb 56f 62f
8:24am 16 18 mph 1017.9mb 56f 62f
8:18am 15 16 mph 1017.9mb 56f 62f
8:12am 15 16 mph 1017.8mb 56f 62f
8:00am 15 16 mph 1017.6mb 56f 62f
7:54am 15 16 mph 1017.6mb 56f 62f
7:48am 16 17 mph 1017.5mb 56f -
7:42am 15 16 mph 1017.5mb 56f 62f
7:36am 15 16 mph 1017.5mb 56f 61f
7:30am 15 17 mph 1017.5mb 56f 61f
7:24am 16 17 mph 1017.4mb 56f 61f
7:18am 17 18 mph 1017.4mb 56f 61f
7:12am 16 17 mph 1017.4mb 56f 62f
7:06am 15 16 mph 1017.5mb 56f 62f
7:00am 14 15 mph 1017.4mb 56f 62f
6:54am 14 15 mph 1017.4mb 56f 61f
6:48am 13 13 mph 1017.4mb 56f -
6:42am 10 11 mph 1017.5mb 56f 61f
6:36am 10 10 mph 1017.5mb 56f 61f
6:30am 10 10 mph 1017.4mb 56f 61f
6:24am 10 11 mph 1017.3mb 56f 61f
6:18am 11 13 mph - - -
6:12am 13 14 mph 1017.1mb 56f 62f
6:06am 13 14 mph 1017.1mb 56f 62f
6:00am 13 13 mph 1017.1mb 56f 62f
5:54am 13 14 mph 1017.1mb 56f 62f
5:48am 11 14 mph 1017.1mb 56f 62f
5:42am 13 14 mph 1017mb 56f 62f
5:36am 13 14 mph 1016.9mb 56f 62f
5:30am 11 14 mph 1016.9mb 56f 62f
5:24am 14 15 mph 1016.7mb 56f 62f
5:18am 14 15 mph 1016.7mb 56f -
5:12am 14 15 mph 1016.6mb 56f 63f
5:06am 14 16 mph 1016.6mb 56f 63f
5:00am 13 14 mph 1016.6mb 56f 63f
4:54am 11 11 mph 1016.7mb 56f 62f
4:48am 10 13 mph 1016.7mb 56f -
4:42am 10 11 mph 1016.7mb 56f 62f
4:36am 10 11 mph 1016.7mb 56f 62f
4:30am 10 10 mph 1016.7mb 56f 62f
4:24am 10 10 mph 1016.7mb 56f 62f
4:18am 10 11 mph 1016.7mb - -
4:12am 10 11 mph 1016.7mb 56f 62f
4:06am 10 11 mph 1016.7mb 56f 61f
4:00am 10 10 mph 1016.6mb 56f 61f
3:54am 10 11 mph 1016.6mb 56f 61f
3:48am 10 11 mph 1016.6mb 56f 62f
3:42am 9 11 mph 1016.6mb 56f 61f
3:36am 9 10 mph 1016.7mb 56f 61f
3:30am 8 10 mph 1016.6mb 56f 61f
3:24am 8 9 mph 1016.6mb 56f 60f
3:18am 9 9 mph 1016.6mb 56f 60f
3:12am 8 9 mph 1016.6mb 56f 60f
3:06am 8 9 mph 1016.5mb 56f 60f
3:00am 9 9 mph 1016.4mb 56f 60f
2:54am 9 9 mph 1016.5mb 56f 60f
2:48am 8 9 mph 1016.6mb 56f 60f
2:42am 7 8 mph 1016.6mb 56f 60f
2:36am 7 9 mph 1016.6mb 56f 60f
2:30am 8 9 mph 1016.6mb 56f 60f
2:24am 9 10 mph 1016.6mb 56f 60f
2:18am 9 10 mph 1016.8mb 56f -
2:12am 8 9 mph 1016.8mb 56f 61f
2:06am 9 9 mph 1016.8mb 56f 61f
2:00am 8 9 mph 1017mb 56f 61f
1:54am 8 9 mph 1017.1mb 56f 61f
1:48am 9 10 mph 1017.1mb 56f 61f
1:42am 10 10 mph 1017.1mb 57f 61f
1:36am 10 11 mph 1017.1mb 57f 62f
1:30am 10 11 mph 1017.2mb 57f 61f
1:24am 9 10 mph 1017.2mb 57f 61f
1:18am 10 10 mph 1017.2mb 57f 61f
1:12am 10 10 mph 1017.2mb 57f 61f
1:06am 9 10 mph 1017.1mb 57f 61f
1:00am 10 10 mph 1017.2mb 57f 61f
12:54am 10 10 mph 1017.2mb 57f 61f
12:48am 9 10 mph 1017.1mb 57f 61f
12:42am 10 10 mph 1017.1mb 57f 61f
12:36am 9 9 mph 1017.1mb 57f 61f
12:30am 8 9 mph 1017.1mb 57f 61f
12:24am 9 11 mph 1017.1mb 57f 61f
12:18am 11 13 mph 1017mb 57f 61f
12:12am 11 13 mph 1017mb 57f 61f
12:06am 11 14 mph 1017mb 57f 61f
12:00am 13 14 mph 1017mb 57f 62f
Thu 02/15 11:54pm 14 14 mph 1017.1mb 57f 61f
11:48pm 14 14 mph 1017.1mb 57f 61f
11:42pm 13 14 mph 1017mb 57f -
11:36pm 11 13 mph 1017.1mb 57f -
11:30pm 11 13 mph 1017.2mb 57f 60f
11:24pm 13 13 mph 1017.2mb 57f 61f
11:18pm 11 11 mph 1017.3mb 57f 61f
11:12pm 11 11 mph 1017.5mb 57f 61f
11:06pm 10 10 mph 1017.5mb 57f 61f
11:00pm 9 10 mph 1017.5mb 57f 62f
10:54pm 9 10 mph 1017.5mb 57f 62f
10:48pm 8 9 mph 1017.5mb 57f 62f
10:42pm 8 9 mph 1017.5mb 58f 62f
10:36pm 8 9 mph 1017.5mb 58f 62f
10:30pm 8 10 mph 1017.5mb 58f 62f
10:24pm 9 11 mph 1017.4mb 58f 62f
10:18pm 9 11 mph 1017.3mb 58f 62f
10:12pm 10 11 mph 1017.3mb 58f 62f
10:06pm 11 15 mph 1017.3mb 58f 62f
10:00pm 10 13 mph 1017.2mb 58f 62f
9:54pm 9 11 mph 1017.1mb 58f 61f